Vertical_Velocity
2 1 -2 -1 1 2 1 2 3 3 3 1 2 1 1 0 1 1 0 0 1 1 -0 -0 0 1 -1 -0 0 -2 -3 -0 3 4 -2 -6 1 0 -3 -3 -2 -3 -0
2 1 3 1 0 2 2 2 1 -0 0 2 0 -1 1 -0 -1 -1 2 1 -2 1 -1 -0 -2 1 -2 -0 1 -3 -2 -3 -2 9 -2 -0 1 -7 5 -5 -4 0 1
2 1 1 1 -2 -1 -3 -2 0 1 -0 -1 -1 -2 -2 0 -1 -1 -0 -1 0 -1 -1 -2 -1 -2 -3 -2 -4 0 -2 -7 -6 -0 8 -3 -1 -0 -0 2 -2 -5 -6
-3 -3 -3 -2 2 3 2 -0 -1 -2 -1 1 2 3 2 1 -1 -1 -0 -1 -1 -1 0 -1 -2 -3 1 -3 -2 -0 -4 -3 -4 -5 2 8 -2 -1 -3 0 -2 -1 1
2 2 0 2 0 0 -1 -4 -6 -6 -5 -5 -5 -4 -3 -2 1 0 2 2 1 1 1 3 -0 0 -0 -1 -0 -1 -4 -4 -1 -4 -4 -1 5 1 -3 -3 -1 3 -5
2 0 -0 -1 0 1 2 2 4 2 2 1 1 -0 -1 -2 -2 -4 -2 -2 -2 -2 0 -1 -2 -1 -3 1 -2 -2 -3 -1 3 -4 -3 -4 -0 -1 2 -0 -2 -3 1
0 -1 1 1 1 -1 -2 0 1 -1 0 0 1 1 0 0 -2 -1 -1 -2 -1 -0 -2 -3 -2 -2 -2 -3 -1 -2 -0 2 -2 -4 -2 -3 -2 1 -2 -3 -2 -2 1
-0 -1 -0 -0 1 1 2 3 1 -2 0 -0 1 1 1 0 2 1 0 -0 -0 -1 0 -1 -3 -5 -4 -3 -5 -4 3 -3 -4 -4 -4 -1 -3 -0 -4 -4 -1 -3 -1
-1 0 -1 1 1 -1 1 -0 -0 3 3 1 -1 2 2 -3 -1 -1 0 1 1 -1 -1 -2 -0 -2 -4 -6 -2 2 -2 -0 -4 -3 -2 -2 -3 -1 -3 -3 -4 -4 1
-5 -4 -2 -1 -0 1 0 -1 0 4 2 0 1 2 -1 -1 0 1 2 2 -2 -3 0 1 -3 -2 -2 -3 -2 -3 3 -6 1 -0 -3 -2 -2 -2 -5 -5 -4 -5 -8
-1 -2 -0 0 1 3 1 1 -1 1 0 1 1 -1 2 2 2 2 1 2 -1 1 -0 -2 -1 -1 -2 -4 -2 -3 -2 1 -3 -3 0 -4 -3 -2 -3 -2 -5 -4 -0
-1 0 2 -3 -3 -1 -1 3 2 1 1 0 2 1 2 1 -1 0 -1 1 -0 1 -1 -2 -2 -1 -1 -1 -3 -1 1 -2 1 -3 -1 -3 -1 -2 -3 -2 -3 -5 -2
-1 -1 -1 -1 1 -0 -2 -4 -2 1 3 5 3 2 3 -0 -0 -0 0 1 0 2 -1 -2 1 -2 -1 -2 -1 0 -0 0 -0 -0 0 -2 -1 -1 -3 -3 -4 -4 2
-0 -2 -3 -2 -3 0 -1 4 -5 -0 1 0 0 5 2 -3 1 5 1 2 -0 1 3 -0 -0 -2 -0 -3 -2 -1 -1 -1 -0 -1 0 -1 0 -2 -5 -2 -1 -6 4
-2 -2 -1 -2 -2 -0 -1 2 2 0 -3 -2 2 1 0 -0 9 -7 3 6 -3 2 1 2 -1 -1 -1 -2 -2 -1 -1 -2 -1 -1 -1 1 0 -0 -3 -2 -1 -0 3
-0 -3 -3 -2 -2 -1 -0 0 3 1 -2 2 -1 1 -1 1 -1 2 1 1 -3 1 2 -0 0 -1 -1 -2 -1 -1 -2 -3 -2 -1 1 0 -0 -0 -2 -3 -1 -0 3
-1 -2 -2 -1 0 -2 -2 -1 2 1 -3 0 3 1 2 2 -0 -2 6 -1 -2 2 -0 -1 -1 1 -0 -1 -0 -1 -1 -3 -1 -0 0 -0 1 -1 1 -1 -2 0 -0
-1 -1 -0 -3 -1 -0 -2 -1 1 2 1 1 -1 0 2 3 1 1 4 -3 1 3 -1 -1 0 -1 -0 0 -0 -1 -1 -0 0 -0 -0 -1 0 -1 1 -0 -1 0 -2
-1 -2 -3 -1 -1 -1 0 1 2 2 2 1 2 -1 1 0 1 2 -1 6 2 1 1 2 0 -0 -0 -0 1 1 1 -2 -1 -1 -1 -1 1 -0 -1 1 -3 -3 -1
-1 -1 -2 -1 -0 -1 -2 0 1 1 2 -0 -0 0 -0 -4 2 2 -4 -0 -0 3 2 -0 0 1 0 1 -0 0 0 -1 -2 -1 1 1 1 -1 -2 -3 -1 -3 -3
-1 -1 -1 1 -0 -1 0 1 0 1 3 4 -0 -2 -4 -1 2 -0 -3 1 2 2 0 4 3 2 1 1 0 0 0 1 -1 -1 0 1 -1 -2 -1 -0 -1 -2 -0
-1 -1 -2 -0 -1 -0 1 2 2 2 3 3 3 -1 -3 1 -2 -2 -1 1 3 0 4 -1 1 2 0 1 1 3 1 2 0 -1 -0 -0 0 0 -2 -1 -1 -1 -1
0 -1 -1 -1 -2 -1 3 1 2 1 2 3 2 -1 -8 4 -3 -3 -1 -1 2 3 1 4 -2 1 3 2 1 2 3 0 3 -1 -1 2 0 -0 -1 -1 -0 -1 -2
-1 -0 -0 -0 -1 -1 1 -1 1 1 3 3 1 -1 0 1 -2 -4 -1 1 3 3 3 6 2 -2 1 3 2 1 3 2 1 2 0 2 0 -0 -2 -2 -0 1 -0
-1 -1 -0 -0 -0 -1 1 0 2 1 1 1 1 1 -1 -1 0 0 -1 1 1 2 2 5 7 2 1 2 2 1 -0 1 1 1 1 4 -1 -3 -0 -1 -1 -1 -1
-0 -1 -1 -0 -1 -1 0 1 2 1 2 2 2 1 -1 -0 0 1 1 1 1 3 4 2 5 3 0 2 2 2 2 2 3 2 0 3 -1 -0 -1 1 0 -2 -0
Height
5573 5579 5585 5590 5595 5601 5607 5613 5619 5624 5629 5634 5639 5644 5650 5655 5661 5666 5671 5675 5680 5685 5689 5694 5697 5701 5705 5708 5712 5716 5719 5723 5727 5729 5731 5733 5736 5737 5739 5741 5742 5744 5745
5558 5563 5568 5574 5579 5584 5589 5595 5601 5607 5613 5618 5622 5628 5633 5638 5643 5648 5653 5658 5663 5668 5672 5676 5681 5685 5688 5692 5696 5699 5702 5706 5711 5714 5714 5717 5720 5721 5722 5725 5725 5727 5729
5543 5548 5552 5557 5563 5568 5573 5578 5583 5589 5595 5601 5606 5612 5616 5621 5626 5631 5636 5641 5645 5650 5655 5658 5663 5667 5671 5675 5678 5682 5685 5688 5693 5697 5699 5699 5701 5702 5705 5707 5709 5710 5712
5526 5530 5535 5540 5546 5551 5557 5562 5567 5573 5578 5583 5588 5594 5599 5604 5609 5614 5618 5623 5627 5632 5636 5640 5644 5649 5652 5656 5660 5663 5666 5670 5673 5677 5681 5681 5682 5683 5686 5688 5690 5690 5693
5511 5516 5520 5524 5529 5533 5538 5544 5549 5554 5560 5565 5571 5576 5581 5586 5591 5595 5601 5605 5610 5614 5618 5621 5625 5630 5633 5637 5641 5643 5647 5651 5654 5657 5660 5662 5664 5665 5666 5667 5670 5671 5672
5495 5499 5503 5508 5513 5517 5522 5527 5532 5537 5542 5548 5553 5558 5564 5569 5574 5578 5583 5587 5591 5595 5599 5602 5606 5610 5614 5618 5621 5625 5629 5633 5634 5637 5640 5642 5643 5645 5646 5646 5648 5650 5653
5478 5482 5487 5491 5495 5499 5505 5510 5514 5519 5525 5529 5535 5540 5545 5550 5555 5560 5565 5569 5574 5577 5581 5585 5588 5592 5596 5599 5603 5607 5610 5612 5613 5616 5619 5622 5624 5624 5625 5626 5627 5629 5630
5459 5463 5468 5472 5477 5482 5487 5491 5495 5501 5506 5511 5516 5521 5526 5531 5537 5542 5546 5550 5554 5558 5562 5566 5569 5573 5577 5580 5584 5588 5590 5590 5593 5597 5599 5602 5602 5603 5603 5605 5608 5608 5610
5442 5445 5449 5454 5459 5464 5468 5473 5477 5483 5487 5491 5497 5503 5507 5512 5518 5522 5527 5531 5535 5539 5543 5547 5551 5554 5558 5563 5567 5569 5570 5571 5574 5577 5580 5581 5582 5583 5583 5586 5586 5588 5591
5426 5429 5434 5438 5443 5447 5450 5455 5460 5465 5469 5474 5479 5484 5489 5493 5499 5504 5509 5512 5517 5522 5526 5529 5533 5538 5541 5544 5549 5551 5553 5554 5558 5559 5560 5562 5564 5565 5566 5566 5568 5570 5570
5412 5414 5418 5422 5427 5431 5434 5438 5442 5447 5452 5457 5462 5466 5471 5476 5481 5486 5491 5495 5499 5504 5507 5511 5516 5520 5524 5527 5531 5534 5536 5538 5539 5541 5543 5544 5546 5547 5548 5549 5550 5552 5552
5399 5399 5401 5405 5409 5413 5417 5421 5425 5430 5435 5439 5444 5448 5452 5457 5461 5467 5472 5477 5481 5486 5490 5494 5499 5503 5507 5510 5514 5517 5519 5520 5523 5524 5526 5527 5529 5530 5531 5533 5534 5535 5536
5385 5386 5387 5388 5391 5394 5399 5402 5407 5412 5417 5422 5427 5432 5435 5439 5445 5450 5454 5459 5464 5469 5472 5477 5481 5485 5489 5493 5497 5500 5502 5504 5506 5508 5509 5511 5512 5513 5515 5517 5518 5519 5519
5371 5372 5372 5373 5374 5375 5378 5384 5388 5394 5398 5402 5408 5414 5417 5422 5428 5432 5437 5442 5446 5451 5455 5459 5464 5469 5473 5477 5481 5484 5486 5489 5491 5493 5495 5496 5498 5499 5500 5502 5503 5504 5504
5356 5357 5357 5358 5359 5361 5363 5365 5368 5373 5378 5385 5390 5395 5400 5405 5410 5414 5422 5425 5429 5435 5439 5444 5448 5453 5457 5462 5466 5470 5472 5475 5478 5480 5481 5483 5484 5485 5486 5488 5489 5490 5490
5340 5340 5341 5343 5344 5346 5348 5351 5354 5355 5358 5364 5369 5375 5380 5386 5391 5398 5403 5406 5411 5418 5423 5427 5433 5437 5442 5446 5451 5454 5458 5461 5464 5466 5468 5469 5470 5471 5472 5473 5474 5475 5475
5324 5324 5324 5325 5328 5329 5332 5336 5340 5343 5344 5347 5351 5355 5361 5366 5372 5378 5384 5387 5393 5400 5405 5411 5416 5421 5426 5431 5435 5439 5443 5446 5450 5452 5454 5455 5457 5458 5459 5459 5460 5461 5460
5308 5307 5308 5309 5311 5314 5317 5321 5325 5329 5332 5335 5337 5340 5344 5348 5352 5357 5363 5369 5376 5381 5387 5393 5398 5404 5409 5414 5419 5423 5427 5431 5435 5438 5440 5442 5444 5445 5446 5447 5448 5448 5448
5293 5293 5293 5294 5296 5298 5302 5306 5310 5315 5318 5322 5324 5327 5331 5334 5336 5340 5343 5349 5355 5362 5368 5374 5380 5386 5392 5398 5402 5407 5412 5416 5420 5423 5426 5429 5431 5432 5434 5435 5436 5436 5437
5279 5279 5279 5281 5282 5283 5287 5291 5295 5300 5305 5308 5311 5313 5316 5319 5323 5325 5326 5329 5334 5340 5347 5355 5362 5368 5375 5380 5386 5391 5396 5401 5405 5409 5412 5415 5417 5420 5422 5423 5424 5424 5424
5266 5266 5267 5268 5268 5270 5272 5276 5281 5286 5291 5295 5297 5299 5301 5305 5308 5308 5308 5311 5315 5321 5328 5335 5343 5351 5357 5363 5369 5375 5380 5385 5390 5394 5398 5401 5404 5406 5409 5410 5411 5411 5411
5253 5254 5255 5256 5256 5257 5260 5263 5267 5272 5277 5282 5285 5286 5289 5293 5293 5292 5293 5296 5300 5306 5312 5320 5327 5334 5341 5347 5353 5359 5364 5370 5374 5379 5384 5387 5390 5393 5395 5397 5398 5398 5398
5240 5241 5242 5243 5244 5246 5248 5250 5254 5259 5265 5270 5272 5274 5277 5281 5281 5281 5284 5287 5292 5296 5302 5307 5314 5319 5326 5332 5338 5344 5350 5355 5360 5364 5369 5373 5376 5379 5381 5384 5385 5385 5386
5227 5228 5229 5230 5232 5233 5235 5237 5241 5247 5253 5257 5261 5264 5267 5269 5271 5273 5276 5280 5284 5288 5292 5296 5302 5308 5313 5319 5325 5330 5335 5341 5346 5351 5355 5359 5362 5365 5368 5370 5372 5373 5373
5214 5215 5216 5217 5218 5220 5223 5226 5230 5235 5240 5246 5250 5253 5256 5258 5261 5264 5268 5272 5276 5279 5283 5287 5291 5297 5302 5307 5312 5317 5322 5328 5333 5337 5341 5345 5347 5352 5355 5357 5358 5360 5361
5202 5202 5203 5204 5205 5207 5210 5213 5217 5223 5229 5235 5239 5243 5246 5249 5251 5255 5259 5263 5267 5271 5274 5278 5281 5286 5292 5296 5301 5305 5310 5315 5320 5324 5328 5331 5335 5339 5341 5344 5345 5347 5348